ATLAS 5 CENTAUR DEB, 43980

Orbit data source: Space-Track

ATLAS 5 CENTAUR DEB, 43980 is space debris in HEO originally from a launch on Wed, 17 Sep 2014 UTC launched from the Air Force Eastern Test Range (AFETR). Debris objects in space refer to the collection of defunct objects orbiting the Earth. Examples of debris include non-operational satellites, rocket bodies, and fragments generated from explosions, collisions, or faulty payload assembly.

Loading next visibility...
Identifier
43980, 2014-055AK
Orbit
HEO
Country
Flag of USUS
Related business
Flag of USUnited Launch Alliance/Lockheed Martin (US)
Manufacturer
Unknown
Mission
Spacecraft
Bus & Motor
Unknown
Mass
Unknown
Launch date (UTC)
2014-09-17 (11 years ago)
Launch vehicle
Unknown
Launch site
Air Force Eastern Test Range (AFETR)
Object type
Payload
Rocket body
Debris
Shape & HBR
Unknown shape, 1.1 m
Radar Cross Section
Medium (>0.1 m² and <1 m²)

Expand to show TLE details & history
Last TLE update: 4 days ago

TLE from 4 days ago
0 ATLAS 5 CENTAUR DEB
1 43980U 14055AK  25285.79269936 -.00000011  00000-0  00000-0 0  9995
2 43980  19.5370 170.9452 4844142 113.4563 303.7300  1.83784829 47635
Epoch: 2025-10-12T19:01Z
TLE epoch observation values (Epoch: 2025-10-12T19:01:29.224Z)
Latitude
0.00002°
Longitude
-135.9796°
Altitude
20,313.258 km
Speed
3.964 km/s
True Right ascension
11h 23m 59s
True Declination
0° 00' 00"
Sunlit
Object was in daylight at epoch
Visualization orbit readout
Latitude
Unknown
Longitude
Unknown
Altitude
Unknown
Speed
Unknown
Apparent Right ascension
Unknown
Apparent Declination
Unknown
Sunlit
N/A
Visualization observer readout
Local Sidereal Time
04:06:54
Azimuth
Unknown
Elevation
Unknown
Doppler factor
Unknown
Orbital elements
Apogee altitude
35,415.878 km
Perigee altitude
8,138.297 km
Semi-major axis
28,155.225 km
Eccentricity
0.48441
Inclination
19.537°
RAAN
170.9452°
Arg. of periapsis
113.4563°
True anomaly
246.53619°
Mean anomaly
303.73°
Eccentric anomaly
276.13402°
Mean motion
0.45941 °/min
Orbital period
783.61 mins
BSTAR
0
Loading maneuver chart data...
Computing Atmospheric mass density...

Documentation

Showing up to 5 results
|